Flag for Brazil Weather past 2 weeks in Florianópolis, Santa Catarina, Brazil

Now
68 °F

Partly cloudy.


Feels Like: 68 °F
Forecast: 57 / 66 °F
Wind: 10 mph from North

Location: Florianopolis Aeroporto

Current Time: Jul 3, 2015 at 11:30:07 PM

Latest Report: Jul 3, 2015 at 11:00 PM


Visibility: N/A

Pressure: 29.77 "Hg

Humidity: 88%

Dew point: 64 °F

Location of FlorianópolisLocation

Historic Weather in Florianópolis — Graph

°F

Florianópolis temperature yesterday

Maximum temperature yesterday: 68 °F (at 12:00 PM)
Minimum temperature yesterday: 61 °F (at 3:00 AM)
Average temperature yesterday: 64 °F

Past Weeks' High & Low Weather Summary

 TemperatureHumidityPressure
High79 °F (Jun 30, 1:00 PM)100% (Jun 26, 7:00 AM)30.54 "Hg (Jun 26, 7:00 AM)
Low52 °F (Jun 19, 10:00 PM)48% (Jun 19, 11:00 AM)29.77 "Hg (Jul 3, 3:00 PM)
Average65 °F77%30.23 "Hg
* Reported Jun 18 10:00 PM — Jul 3 10:00 PM, Florianópolis, Weather by CustomWeather, © 2015

Note: Actual official high and low records may vary slightly from our data, if they occured in-between our weather recording intervals... More about our weather records

Advertising

Florianópolis weather history for previous 24 hours

 ConditionsComfort  
Time TempWeatherWind HumidityBarometerVisibility
10:00 PM
Fri, Jul 3
68 °FLight rain. Partly cloudy.6 mph88%29.77 "HgN/A
9:00 PM68 °FLight rain. Partly cloudy.3 mph88%29.77 "HgN/A
8:00 PM70 °FPartly cloudy.8 mph78%29.80 "HgN/A
7:00 PM68 °FPartly cloudy.6 mph83%29.77 "HgN/A
6:00 PM70 °FPassing clouds.10 mph78%29.80 "HgN/A
5:00 PM70 °FPassing clouds.12 mph78%29.77 "HgN/A
4:00 PM72 °FScattered clouds.14 mph73%29.77 "HgN/A
3:00 PM72 °FScattered clouds.15 mph73%29.77 "HgN/A
2:00 PM73 °FScattered clouds.15 mph69%29.80 "HgN/A
1:00 PM72 °FScattered clouds.15 mph73%29.83 "HgN/A
12:00 PM70 °FScattered clouds.15 mph78%29.83 "HgN/A
11:00 AM68 °FPartly sunny.7 mph83%29.89 "HgN/A
10:00 AM66 °FPartly sunny.7 mph88%29.89 "HgN/A
9:00 AM64 °FPartly sunny.7 mph94%29.92 "HgN/A
8:00 AM63 °FScattered clouds.6 mph94%29.92 "HgN/A
7:00 AM63 °FBroken clouds.3 mph94%29.92 "HgN/A
6:00 AM63 °FPassing clouds.5 mph94%29.95 "Hg5 mi
5:00 AM63 °FLight rain. Passing clouds.3 mph94%29.98 "Hg5 mi
4:00 AM63 °FPassing clouds.No wind94%29.95 "HgN/A
3:00 AM64 °FPassing clouds.2 mph88%29.98 "HgN/A
2:00 AM64 °FPassing clouds.3 mph83%30.01 "HgN/A
1:00 AM64 °FPassing clouds.No wind83%30.01 "HgN/A
12:00 AM64 °FPassing clouds.3 mph83%30.04 "HgN/A
11:00 PM
Thu, Jul 2
64 °FPassing clouds.2 mph83%30.04 "HgN/A
Weather by CustomWeather, © 2015

See weather overviewHow to use our weather pages